[[{"header":{"parameterUnit":"m.s-1","parameterCategory":2,"la1":30.2991,"la2":30.254,"lo1":-89.0895,"lo2":-89.0444,"dy":0.0017,"dx":0.0017,"nx":28,"ny":28,"refTime":"2025-08-16T09:00:00:Z","depth":"0","parameterNumber":2,"parameterNumberName":"U-component_of_CURRENTS"},"data":[0,0,0,0,0,0,0,0,0,0,0,0,0,0,0,0,0,0,0,0,0,0,0,0,0,0,0,0,0,0,0,0,0,0,0,0,0,0,0,0,0,0,0,0,0,0,0,0,0,0,0,0,0,0,0,0,0,0,-0.1876,-0.1875,0,-0.1814,-0.1812,-0.1811,-0.171,-0.1708,-0.1707,-0.1706,-0.1582,-0.158,-0.1578,0,0,0,0,0,0,0,0,0,0,0,0,0,-0.1964,-0.1962,-0.1876,-0.1875,-0.1875,-0.1814,-0.1812,-0.1811,-0.171,-0.1708,-0.1707,-0.1705,-0.1583,-0.1581,-0.1578,0,0,0,0,0,0,0,0,0,0,0,0,0,-0.1911,-0.1961,-0.1876,-0.1821,-0.1816,-0.1814,-0.1812,-0.1811,-0.171,-0.1708,-0.1706,-0.1704,-0.1584,-0.1581,-0.1578,-0.16,0,0,-0.1569,-0.1567,0,0,0,0,0,0,0,0,-0.1914,-0.1907,-0.183,-0.1825,-0.1819,-0.1772,-0.1799,-0.1739,-0.1711,-0.1745,-0.1706,-0.1703,-0.1645,-0.1637,-0.1623,-0.1595,-0.1589,-0.1568,-0.1567,-0.1565,-0.1564,0,0,0,0,0,0,0,-0.1918,-0.191,-0.1845,-0.183,-0.1823,-0.182,-0.1809,-0.1787,-0.1702,-0.1742,-0.1736,-0.1738,-0.1641,-0.1626,-0.1619,-0.1587,-0.1568,-0.1566,-0.1564,-0.1563,-0.1635,-0.1638,0,0,0,0,0,0,-0.1935,-0.1913,-0.1848,-0.1844,-0.1869,-0.182,-0.1808,-0.1785,-0.1703,-0.1691,-0.174,-0.1734,-0.1632,-0.1623,-0.1615,-0.1667,-0.1565,-0.1562,-0.1561,-0.1631,-0.1635,-0.1639,0,0,0,0,0,0,-0.1937,-0.1929,-0.185,-0.1883,-0.1873,-0.1821,-0.1796,-0.1785,-0.1764,-0.1704,-0.1688,-0.173,-0.163,-0.1619,-0.1618,-0.166,-0.1561,-0.1558,-0.1627,-0.1632,-0.1637,-0.1752,0,0,0,0,0,0,-0.1939,-0.1929,-0.1916,-0.1883,-0.1872,-0.1862,-0.1798,-0.1785,-0.1772,-0.1762,-0.1691,-0.1677,-0.1628,-0.1624,-0.1615,-0.1654,-0.1556,-0.1622,-0.1629,-0.1636,-0.1743,-0.1761,-0.1775,0,0,0,0,0,-0.1942,-0.1929,-0.1915,-0.1907,-0.1855,-0.1864,-0.1859,-0.1811,-0.1773,-0.178,-0.1743,-0.1679,-0.1662,-0.1624,-0.1613,-0.1652,-0.1618,-0.1627,-0.1635,-0.1736,-0.1757,-0.1775,0,0,0,0,0,0,-0.1953,-0.1918,-0.19,-0.1874,-0.1881,-0.1849,-0.1842,-0.1822,-0.1796,-0.1776,-0.1714,-0.1701,-0.1726,-0.1684,-0.1644,-0.1702,-0.1636,-0.1642,-0.1716,-0.1736,-0.1751,-0.1757,-0.1554,0,0,0,0,0,-0.1957,-0.1932,-0.1923,-0.1904,-0.1906,-0.1879,-0.1874,-0.1852,-0.183,-0.1813,-0.1775,-0.1749,-0.1757,-0.1739,-0.1735,-0.175,-0.169,-0.1777,-0.1793,-0.1807,-0.181,-0.1794,-0.1808,-0.1667,-0.1667,-0.1667,0,0,-0.1958,-0.1934,-0.1921,-0.1906,-0.1893,-0.1926,-0.1868,-0.1866,-0.1895,-0.1807,-0.182,-0.1804,-0.1781,-0.1811,-0.1818,-0.1771,-0.1811,-0.1817,-0.1828,-0.1824,-0.1804,-0.1817,-0.1829,-0.1673,-0.1672,-0.1671,0,0,-0.1975,-0.193,-0.1934,-0.195,-0.1951,-0.1945,-0.1955,-0.1942,-0.1931,-0.1954,-0.192,-0.193,-0.1913,-0.1916,-0.1913,-0.2018,-0.191,-0.2023,-0.2083,-0.2069,-0.2078,-0.2087,-0.1992,-0.1991,-0.2014,-0.2014,-0.2014,0,-0.1984,-0.1973,-0.1945,-0.1976,-0.1984,-0.1966,-0.1999,-0.2012,-0.2006,-0.2004,-0.1972,-0.1992,-0.1968,-0.202,-0.2063,-0.2051,-0.1995,-0.2002,-0.2085,-0.2092,-0.2098,-0.1999,-0.1996,-0.2021,-0.202,-0.2019,-0.2019,0,-0.2024,-0.2024,-0.2031,-0.2057,-0.2076,-0.2092,-0.2119,-0.2133,-0.2113,-0.2117,-0.2153,-0.2138,-0.2136,-0.2157,-0.2135,-0.2194,-0.2122,-0.2115,-0.2023,-0.2118,-0.2008,-0.2003,-0.203,-0.2028,-0.2026,-0.2024,0,0,-0.2015,-0.2048,-0.2053,-0.207,-0.2107,-0.2122,-0.2182,-0.2214,-0.223,-0.2249,-0.226,-0.2317,-0.2288,-0.2289,-0.2277,-0.2275,-0.2267,-0.2218,-0.2214,-0.2099,-0.2171,-0.208,-0.2064,-0.227,-0.2271,-0.2272,-0.206,0,-0.2049,-0.2098,-0.2113,-0.2174,-0.2195,-0.2209,-0.2262,-0.2295,-0.2299,-0.2314,-0.2324,-0.2339,-0.2349,-0.2334,-0.2352,-0.2282,-0.2266,-0.2321,-0.2117,-0.2109,-0.1999,-0.2061,-0.1977,-0.1781,-0.2055,-0.2054,-0.2053,0,-0.2081,-0.21,-0.215,-0.2193,-0.2205,-0.2249,-0.2279,-0.2329,-0.2369,-0.2365,-0.2393,-0.2385,-0.2401,-0.2391,-0.2329,-0.2357,-0.2286,-0.2233,-0.2223,-0.2097,-0.2012,-0.1741,-0.176,-0.1758,-0.2044,-0.2044,-0.2045,0,-0.2056,-0.2123,-0.2143,-0.2166,-0.223,-0.2246,-0.2279,-0.2328,-0.2341,-0.2387,-0.2361,-0.2407,-0.2357,-0.2342,-0.2247,-0.2277,-0.2136,-0.2149,-0.2,-0.1987,-0.1855,-0.1831,-0.1831,-0.2121,-0.2122,-0.2122,-0.2123,0,-0.2063,-0.2086,-0.2129,-0.2146,-0.2161,-0.2226,-0.2242,-0.2286,-0.2322,-0.2314,-0.2375,-0.2344,-0.2345,-0.2266,-0.2226,-0.2069,-0.2108,-0.2008,-0.1948,-0.189,-0.1873,-0.1816,-0.1851,-0.2114,-0.2116,-0.2118,-0.2119,0,-0.2026,-0.2064,-0.2081,-0.2133,-0.2144,-0.2151,-0.2188,-0.2199,-0.225,-0.223,-0.2234,-0.2246,-0.2144,-0.2111,-0.2015,-0.1975,-0.1838,-0.1821,-0.1715,-0.1649,-0.1535,-0.158,-0.1496,-0.1451,-0.1617,-0.1614,-0.1612,0,-0.2005,-0.201,-0.2035,-0.2025,-0.204,-0.2058,-0.2062,-0.2139,-0.2146,-0.2152,-0.2124,-0.2048,-0.1966,-0.1787,-0.1721,-0.1597,-0.1666,-0.146,-0.1547,-0.1518,-0.1524,-0.1579,-0.1553,-0.1382,-0.1378,-0.1374,-0.1371,0,-0.1939,-0.1941,-0.194,-0.1917,-0.1913,-0.1915,-0.1933,-0.193,-0.1998,-0.197,-0.1908,-0.1846,-0.1694,-0.1542,-0.1411,-0.1354,-0.1442,-0.1382,-0.1401,-0.1389,-0.14,-0.1328,-0.1481,-0.134,-0.1343,-0.1345,-0.1347,-0.1348,-0.1851,-0.1815,-0.1797,-0.177,-0.1768,-0.1749,-0.1702,-0.1728,-0.1695,-0.1618,-0.1653,-0.1461,-0.143,-0.1237,-0.118,-0.1077,-0.1171,-0.107,-0.1127,-0.1184,-0.1173,-0.1229,-0.1011,-0.1012,-0.1013,-0.1014,-0.1015,0,-0.1707,-0.1677,-0.1649,-0.1598,-0.154,-0.1595,-0.1585,-0.1515,-0.1415,-0.1338,-0.1238,-0.1039,-0.0972,-0.0952,-0.0909,-0.0861,-0.0872,-0.0859,-0.0946,-0.0932,-0.0994,-0.102,-0.0738,-0.0738,-0.0738,-0.0738,-0.0738,-0.0738,-0.1619,-0.1528,-0.1512,-0.1366,-0.1338,-0.1214,-0.1175,-0.111,-0.1027,-0.0793,-0.0589,-0.0486,-0.0579,-0.0844,-0.0861,-0.0813,-0.0836,-0.0791,-0.0839,-0.0927,-0.0954,-0.0979,-0.1013,-0.0734,-0.0734,-0.0733,-0.0733,-0.0733]},{"header":{"parameterUnit":"m.s-1","parameterCategory":2,"la1":30.2991,"la2":30.254,"lo1":-89.0895,"lo2":-89.0444,"dy":0.0017,"dx":0.0017,"nx":28,"ny":28,"refTime":"2025-08-16T09:00:00:Z","depth":"0","parameterNumber":3,"parameterNumberName":"V-component_of_CURRENTS"},"data":[0,0,0,0,0,0,0,0,0,0,0,0,0,0,0,0,0,0,0,0,0,0,0,0,0,0,0,0,0,0,0,0,0,0,0,0,0,0,0,0,0,0,0,0,0,0,0,0,0,0,0,0,0,0,0,0,0,0,0.0126,0.0126,0,0.014,0.014,0.014,0.019,0.0191,0.0193,0.0194,0.0239,0.0239,0.0239,0,0,0,0,0,0,0,0,0,0,0,0,0,0.009,0.0091,0.0126,0.0126,0.0126,0.014,0.014,0.014,0.019,0.0191,0.0193,0.0194,0.0239,0.0239,0.0239,0,0,0,0,0,0,0,0,0,0,0,0,0,0.0103,0.0091,0.0126,0.0154,0.0157,0.014,0.014,0.014,0.0189,0.0191,0.0193,0.0195,0.0239,0.0239,0.0239,0.0199,0,0,0.0239,0.0239,0,0,0,0,0,0,0,0,0.0102,0.0104,0.015,0.0152,0.0156,0.0167,0.0144,0.0162,0.0189,0.0175,0.0194,0.0196,0.0218,0.022,0.0215,0.0202,0.0203,0.0239,0.0239,0.0239,0.0239,0,0,0,0,0,0,0,0.0101,0.0104,0.0129,0.015,0.0154,0.0149,0.0153,0.0147,0.0184,0.0176,0.0181,0.0185,0.022,0.0214,0.0216,0.0204,0.0239,0.0239,0.0239,0.0239,0.0125,0.0122,0,0,0,0,0,0,0.0104,0.0103,0.0129,0.013,0.0136,0.0148,0.0153,0.016,0.0184,0.019,0.0183,0.0187,0.0213,0.0216,0.0218,0.0152,0.0239,0.0239,0.0239,0.0128,0.0125,0.0121,0,0,0,0,0,0,0.0104,0.0107,0.0128,0.0118,0.0121,0.0148,0.0154,0.0159,0.016,0.0189,0.0195,0.018,0.0215,0.0218,0.0196,0.0155,0.0239,0.0239,0.0132,0.0127,0.0123,0.0033,0,0,0,0,0,0,0.0102,0.0106,0.0105,0.0118,0.0122,0.0097,0.0153,0.0158,0.016,0.0166,0.0188,0.0194,0.0217,0.0196,0.0196,0.0157,0.0239,0.0136,0.013,0.0124,0.004,0.0026,0.0014,0,0,0,0,0,0.0101,0.0078,0.0104,0.0107,0.0122,0.0095,0.0095,0.012,0.0158,0.0133,0.0153,0.0194,0.016,0.0193,0.0194,0.0154,0.0138,0.0131,0.0125,0.0046,0.0029,0.0015,0,0,0,0,0,0,0.0059,0.0082,0.0111,0.0098,0.0094,0.0104,0.0084,0.0112,0.0108,0.012,0.016,0.0164,0.0127,0.0144,0.018,0.01,0.0153,0.0146,0.0092,0.0077,0.0064,0.0055,0.0239,0,0,0,0,0,0.0052,0.0043,0.0062,0.0049,0.0044,0.0067,0.0062,0.008,0.0084,0.0086,0.0103,0.011,0.0095,0.0092,0.0081,0.0041,0.0103,0.0012,-0.0001,-0.0012,-0.0022,0.0051,0.0046,0.0099,0.0099,0.0099,0,0,0.0036,0.0044,0.0043,0.004,0.0041,-0.0002,0.0067,0.0048,0.0014,0.0089,0.0044,0.0066,0.0072,0.0025,0.001,0.004,0.0001,-0.002,-0.0029,-0.0034,0.0044,0.0039,0.0036,0.0095,0.0095,0.0096,0,0,-0.0035,0.0001,-0.0043,-0.0058,-0.0063,-0.0053,-0.006,-0.0055,-0.005,-0.0085,-0.0044,-0.0046,-0.0069,-0.007,-0.0073,-0.0167,-0.007,-0.0174,-0.024,-0.0169,-0.0171,-0.0173,-0.0105,-0.01,-0.0178,-0.0178,-0.0178,0,-0.0058,-0.0102,-0.0064,-0.0124,-0.0141,-0.0083,-0.0144,-0.0149,-0.015,-0.014,-0.0116,-0.0119,-0.0119,-0.0152,-0.02,-0.0194,-0.0129,-0.0175,-0.018,-0.018,-0.018,-0.011,-0.0103,-0.0183,-0.0182,-0.0182,-0.0181,0,-0.0172,-0.0207,-0.0242,-0.0286,-0.0303,-0.0346,-0.0336,-0.0346,-0.0313,-0.0289,-0.0295,-0.0278,-0.0265,-0.0283,-0.0279,-0.0293,-0.0239,-0.0199,-0.0128,-0.019,-0.0114,-0.0104,-0.019,-0.0188,-0.0187,-0.0186,0,0,-0.0226,-0.0305,-0.0317,-0.0357,-0.0386,-0.0409,-0.0461,-0.0472,-0.0459,-0.0454,-0.0432,-0.0482,-0.041,-0.0413,-0.0383,-0.0347,-0.0311,-0.0287,-0.0281,-0.0199,-0.014,-0.0119,-0.0105,-0.0248,-0.0247,-0.0246,-0.0088,0,-0.0328,-0.0463,-0.0466,-0.0576,-0.0639,-0.0599,-0.0635,-0.0625,-0.0582,-0.0546,-0.0497,-0.047,-0.0476,-0.0443,-0.0419,-0.0325,-0.029,-0.0358,-0.0113,-0.0107,-0.0061,-0.0096,-0.0035,0.011,-0.0078,-0.0076,-0.0075,0,-0.0446,-0.0516,-0.0647,-0.0696,-0.0712,-0.0756,-0.0744,-0.0768,-0.0698,-0.0652,-0.0598,-0.0516,-0.0487,-0.0456,-0.0337,-0.0368,-0.0285,-0.021,-0.02,-0.0142,-0.0068,0.0139,0.0136,0.0283,-0.0059,-0.006,-0.0061,0,-0.0518,-0.0632,-0.0731,-0.0762,-0.0816,-0.0838,-0.0842,-0.0794,-0.0777,-0.0692,-0.0628,-0.0555,-0.0486,-0.0387,-0.0275,-0.028,-0.0105,-0.0074,0.0022,0.0027,0.0141,0.0152,0.0327,0.0014,0.0013,0.0013,0.0012,0,-0.0633,-0.0709,-0.0767,-0.0834,-0.0896,-0.0896,-0.0913,-0.0894,-0.0819,-0.0775,-0.0676,-0.0604,-0.046,-0.0338,-0.0251,-0.0092,-0.008,0.0004,0.0066,0.0106,0.0112,0.0295,0.0338,0.0019,0.0018,0.0016,0.0015,0,-0.0712,-0.0764,-0.0872,-0.0936,-0.0948,-0.0986,-0.0974,-0.0966,-0.0884,-0.0815,-0.078,-0.0618,-0.0455,-0.031,-0.0118,-0.0046,0.0197,0.0149,0.0175,0.0234,0.0447,0.048,0.0686,0.0783,0.03,0.0301,0.0303,0,-0.0768,-0.0842,-0.0941,-0.0985,-0.102,-0.1057,-0.1071,-0.102,-0.0999,-0.0828,-0.0799,-0.0596,-0.0459,-0.0172,0.0009,0.0208,0.029,0.0364,0.0337,0.046,0.0545,0.0559,0.0627,0.0465,0.0468,0.0469,0.0471,0,-0.0857,-0.0888,-0.0967,-0.1063,-0.111,-0.1154,-0.1167,-0.1157,-0.1067,-0.096,-0.0798,-0.065,-0.0342,-0.0067,0.0185,0.0294,0.0485,0.0409,0.0556,0.0687,0.07,0.0824,0.0353,0.0489,0.0487,0.0486,0.0485,0.0484,-0.0885,-0.0947,-0.1038,-0.1117,-0.1181,-0.1236,-0.125,-0.1224,-0.1159,-0.0962,-0.082,-0.0505,-0.0102,0.0281,0.0392,0.0696,0.0644,0.08,0.0833,0.0839,0.0914,0.0455,0.0637,0.0636,0.0635,0.0635,0.0634,0,-0.0895,-0.0975,-0.1073,-0.1173,-0.124,-0.1263,-0.1293,-0.1254,-0.1169,-0.0929,-0.0715,-0.0112,0.0246,0.0587,0.0971,0.1127,0.116,0.1205,0.1269,0.1322,0.096,0.0947,0.1181,0.1181,0.1181,0.1181,0.1181,0.1181,-0.0903,-0.0997,-0.1059,-0.1182,-0.1249,-0.1293,-0.1303,-0.1222,-0.1057,-0.0641,-0.0227,0.0099,0.0632,0.1158,0.1508,0.1531,0.1687,0.1652,0.1728,0.15,0.1465,0.1432,0.1433,0.1765,0.1766,0.2111,0.2114,0.2116]}],[{"header":{"parameterUnit":"m.s-1","parameterCategory":2,"la1":30.2991,"la2":30.254,"lo1":-89.0895,"lo2":-89.0444,"dy":0.0017,"dx":0.0017,"nx":28,"ny":28,"refTime":"2025-08-16T09:00:00:Z","depth":"2","parameterNumber":2,"parameterNumberName":"U-component_of_CURRENTS"},"data":[0,0,0,0,0,0,0,0,0,0,0,0,0,0,0,0,0,0,0,0,0,0,0,0,0,0,0,0,0,0,0,0,0,0,0,0,0,0,0,0,0,0,0,0,0,0,0,0,0,0,0,0,0,0,0,0,0,0,-0.1977,-0.1979,0,-0.218,-0.2182,-0.2185,-0.2244,-0.2242,-0.2241,-0.2239,-0.2508,-0.2517,-0.2525,0,0,0,0,0,0,0,0,0,0,0,0,0,-0.1801,-0.1803,-0.1977,-0.1979,-0.1981,-0.2179,-0.2182,-0.2186,-0.2244,-0.2242,-0.224,-0.2238,-0.2505,-0.2516,-0.2526,0,0,0,0,0,0,0,0,0,0,0,0,0,-0.1933,-0.1804,-0.1977,-0.203,-0.2036,-0.2178,-0.2183,-0.2187,-0.2245,-0.2242,-0.224,-0.2238,-0.2502,-0.2515,-0.2527,-0.2655,0,0,-0.2567,-0.2573,0,0,0,0,0,0,0,0,-0.1925,-0.194,-0.202,-0.2026,-0.2034,-0.2179,-0.2219,-0.2345,-0.2245,-0.2171,-0.2239,-0.2236,-0.2403,-0.2424,-0.2474,-0.2668,-0.268,-0.2568,-0.2576,-0.2582,-0.2585,0,0,0,0,0,0,0,-0.1915,-0.1932,-0.2063,-0.2022,-0.2031,-0.2098,-0.2113,-0.2244,-0.2303,-0.2178,-0.2181,-0.2195,-0.2407,-0.2461,-0.2481,-0.2684,-0.2568,-0.2579,-0.2587,-0.2592,-0.2891,-0.2891,0,0,0,0,0,0,-0.1874,-0.1923,-0.2056,-0.2068,-0.1966,-0.2102,-0.212,-0.2139,-0.2301,-0.2321,-0.2197,-0.2197,-0.244,-0.2466,-0.249,-0.2607,-0.2582,-0.2594,-0.2601,-0.289,-0.2891,-0.2891,0,0,0,0,0,0,-0.187,-0.1884,-0.2048,-0.1995,-0.202,-0.2106,-0.2129,-0.2145,-0.2201,-0.2314,-0.2336,-0.2236,-0.2439,-0.2472,-0.2635,-0.2619,-0.26,-0.2611,-0.289,-0.2891,-0.2891,-0.2869,0,0,0,0,0,0,-0.1864,-0.1882,-0.1904,-0.1993,-0.2021,-0.2117,-0.2131,-0.215,-0.221,-0.2213,-0.2356,-0.2377,-0.244,-0.2615,-0.2648,-0.2636,-0.2621,-0.289,-0.289,-0.2891,-0.287,-0.2869,-0.2868,0,0,0,0,0,-0.1857,-0.1889,-0.1904,-0.1921,-0.2042,-0.2117,-0.2139,-0.2196,-0.2214,-0.224,-0.2362,-0.2373,-0.2634,-0.263,-0.2667,-0.2658,-0.289,-0.289,-0.2891,-0.287,-0.2869,-0.2868,0,0,0,0,0,0,-0.183,-0.19,-0.1918,-0.1971,-0.2029,-0.2123,-0.217,-0.2206,-0.2326,-0.2348,-0.2443,-0.2477,-0.2597,-0.2643,-0.2634,-0.2735,-0.2738,-0.2746,-0.2709,-0.2709,-0.2708,-0.2656,-0.2632,0,0,0,0,0,-0.1832,-0.1862,-0.1939,-0.1975,-0.2013,-0.2096,-0.2143,-0.2182,-0.2286,-0.2334,-0.2443,-0.2542,-0.263,-0.2683,-0.2784,-0.2887,-0.2841,-0.288,-0.2879,-0.2878,-0.2857,-0.2773,-0.2761,-0.2892,-0.2892,-0.2892,0,0,-0.1825,-0.1869,-0.1886,-0.1969,-0.2032,-0.2101,-0.2121,-0.2194,-0.2259,-0.2353,-0.2505,-0.2578,-0.2664,-0.2764,-0.2812,-0.28,-0.2819,-0.2878,-0.2877,-0.2856,-0.2772,-0.2759,-0.2747,-0.2892,-0.2892,-0.2892,0,0,-0.1829,-0.1876,-0.1911,-0.1969,-0.2055,-0.2113,-0.213,-0.2248,-0.2307,-0.246,-0.2513,-0.2576,-0.2765,-0.2782,-0.2819,-0.2875,-0.2831,-0.2889,-0.2839,-0.2759,-0.2746,-0.2734,-0.266,-0.2641,-0.2869,-0.2869,-0.2869,0,-0.1824,-0.1877,-0.1931,-0.1993,-0.2041,-0.2114,-0.2173,-0.226,-0.2416,-0.2455,-0.2501,-0.2672,-0.2756,-0.2793,-0.2806,-0.2868,-0.2817,-0.2843,-0.2753,-0.274,-0.2729,-0.2655,-0.2635,-0.2868,-0.2868,-0.2868,-0.2868,0,-0.1865,-0.1915,-0.1946,-0.2039,-0.2099,-0.216,-0.2267,-0.2349,-0.2433,-0.2491,-0.2578,-0.2682,-0.2743,-0.2764,-0.2828,-0.2771,-0.2761,-0.2774,-0.2747,-0.2713,-0.2639,-0.2618,-0.2866,-0.2867,-0.2867,-0.2867,0,0,-0.1812,-0.1949,-0.1952,-0.1994,-0.2128,-0.2168,-0.2288,-0.2375,-0.2401,-0.2535,-0.2543,-0.268,-0.2677,-0.2713,-0.2747,-0.2682,-0.2579,-0.2692,-0.2688,-0.2602,-0.2391,-0.2329,-0.23,-0.2569,-0.2566,-0.2563,-0.2372,0,-0.1822,-0.1913,-0.1989,-0.2067,-0.2124,-0.2224,-0.2304,-0.2388,-0.2463,-0.25,-0.2542,-0.2592,-0.2671,-0.2674,-0.2627,-0.2601,-0.2524,-0.2629,-0.245,-0.2444,-0.2379,-0.2274,-0.2164,-0.1979,-0.2352,-0.2348,-0.2346,0,-0.1827,-0.1885,-0.1968,-0.2058,-0.2091,-0.2153,-0.2232,-0.2316,-0.238,-0.2427,-0.2448,-0.249,-0.2464,-0.2513,-0.2411,-0.2473,-0.2427,-0.2391,-0.2382,-0.2311,-0.2342,-0.2075,-0.1928,-0.2311,-0.2314,-0.2316,-0.2319,0,-0.1736,-0.1851,-0.1905,-0.195,-0.2084,-0.2128,-0.2194,-0.2279,-0.2313,-0.2355,-0.2341,-0.2345,-0.2326,-0.2271,-0.2272,-0.2318,-0.2116,-0.2164,-0.2054,-0.205,-0.1912,-0.1902,-0.2038,-0.2038,-0.2039,-0.2039,-0.204,0,-0.1716,-0.1745,-0.1862,-0.1902,-0.1919,-0.2049,-0.2063,-0.2139,-0.2187,-0.2185,-0.2273,-0.2245,-0.226,-0.2194,-0.2183,-0.2048,-0.2045,-0.2,-0.1974,-0.1905,-0.1897,-0.2163,-0.218,-0.2032,-0.2034,-0.2035,-0.2036,0,-0.1619,-0.1711,-0.1754,-0.1869,-0.1888,-0.1899,-0.1977,-0.1993,-0.2061,-0.2047,-0.2059,-0.2117,-0.205,-0.2039,-0.1934,-0.1914,-0.181,-0.1767,-0.1696,-0.1664,-0.1816,-0.1835,-0.158,-0.1575,-0.1572,-0.1569,-0.1566,0,-0.159,-0.1613,-0.1682,-0.1689,-0.1746,-0.1777,-0.1806,-0.1908,-0.1933,-0.1977,-0.196,-0.192,-0.1888,-0.1713,-0.1657,-0.1545,-0.1667,-0.1395,-0.1461,-0.1756,-0.1758,-0.1783,-0.1806,-0.1272,-0.1267,-0.1263,-0.126,0,-0.1515,-0.1536,-0.1568,-0.1572,-0.16,-0.1612,-0.1673,-0.1661,-0.1787,-0.178,-0.1781,-0.175,-0.1625,-0.1475,-0.1356,-0.1301,-0.1408,-0.1311,-0.1571,-0.1428,-0.1456,-0.1462,-0.1496,-0.1225,-0.1229,-0.1231,-0.1233,-0.1234,-0.1428,-0.1409,-0.1446,-0.1438,-0.1461,-0.1473,-0.1443,-0.1516,-0.1516,-0.1521,-0.1583,-0.1496,-0.1448,-0.1198,-0.1098,-0.1024,-0.1134,-0.1109,-0.1124,-0.1143,-0.1164,-0.1186,-0.0908,-0.091,-0.0911,-0.0912,-0.0913,0,-0.1317,-0.1321,-0.1317,-0.1314,-0.1298,-0.135,-0.1368,-0.133,-0.1297,-0.133,-0.1312,-0.1149,-0.1024,-0.0974,-0.0798,-0.0745,-0.0772,-0.0722,-0.078,-0.0814,-0.0844,-0.0855,-0.0514,-0.0513,-0.0512,-0.0511,0,0,-0.1265,-0.1224,-0.1228,-0.116,-0.1159,-0.1099,-0.1083,-0.104,-0.1028,-0.0969,-0.0939,-0.1007,-0.0971,-0.0769,-0.0692,-0.0579,-0.0699,-0.0542,-0.0863,-0.0968,-0.0997,-0.1062,-0.1114,0,0,0,0,0]},{"header":{"parameterUnit":"m.s-1","parameterCategory":2,"la1":30.2991,"la2":30.254,"lo1":-89.0895,"lo2":-89.0444,"dy":0.0017,"dx":0.0017,"nx":28,"ny":28,"refTime":"2025-08-16T09:00:00:Z","depth":"2","parameterNumber":3,"parameterNumberName":"V-component_of_CURRENTS"},"data":[0,0,0,0,0,0,0,0,0,0,0,0,0,0,0,0,0,0,0,0,0,0,0,0,0,0,0,0,0,0,0,0,0,0,0,0,0,0,0,0,0,0,0,0,0,0,0,0,0,0,0,0,0,0,0,0,0,0,-0.0343,-0.0342,0,-0.0244,-0.0243,-0.0241,-0.0156,-0.0156,-0.0156,-0.0155,0.022,0.023,0.0239,0,0,0,0,0,0,0,0,0,0,0,0,0,-0.0352,-0.0352,-0.0343,-0.0342,-0.0341,-0.0244,-0.0242,-0.024,-0.0157,-0.0156,-0.0156,-0.0155,0.0217,0.0228,0.024,0,0,0,0,0,0,0,0,0,0,0,0,0,-0.0304,-0.0352,-0.0343,-0.0292,-0.0287,-0.0245,-0.0242,-0.024,-0.0157,-0.0156,-0.0156,-0.0155,0.0213,0.0227,0.0242,0.032,0,0,0.0286,0.0292,0,0,0,0,0,0,0,0,-0.0307,-0.0303,-0.0301,-0.0296,-0.029,-0.0218,-0.0108,-0.0041,-0.0157,-0.02,-0.0155,-0.0155,0.0095,0.0119,0.0141,0.0338,0.0354,0.0287,0.0296,0.0302,0.0306,0,0,0,0,0,0,0,-0.0311,-0.0306,-0.0297,-0.03,-0.0294,-0.0239,-0.0232,-0.0095,-0.0046,-0.0196,-0.0191,-0.019,0.0101,0.0127,0.0152,0.0359,0.0287,0.03,0.0309,0.0314,0.0633,0.0633,0,0,0,0,0,0,-0.0342,-0.031,-0.0301,-0.0295,-0.0305,-0.024,-0.0232,-0.0236,-0.0054,-0.003,-0.0191,-0.0187,0.0102,0.0135,0.0166,0.0311,0.0302,0.0316,0.0324,0.0634,0.0633,0.0633,0,0,0,0,0,0,-0.0342,-0.0342,-0.0305,-0.0305,-0.0297,-0.0242,-0.0247,-0.0235,-0.0202,-0.0054,-0.0023,-0.017,0.0104,0.0145,0.031,0.0325,0.0322,0.0335,0.0634,0.0634,0.0633,0.0576,0,0,0,0,0,0,-0.0343,-0.0343,-0.0348,-0.0307,-0.0298,-0.0297,-0.0248,-0.0233,-0.0206,-0.0199,-0.0026,0.0008,0.0107,0.0287,0.0324,0.0345,0.0347,0.0634,0.0634,0.0633,0.0578,0.0574,0.057,0,0,0,0,0,-0.0344,-0.036,-0.0349,-0.0348,-0.0311,-0.0298,-0.0288,-0.0241,-0.0205,-0.0205,-0.006,0.0003,0.0308,0.0301,0.0344,0.0368,0.0634,0.0634,0.0633,0.058,0.0575,0.057,0,0,0,0,0,0,-0.0362,-0.0352,-0.0339,-0.035,-0.0335,-0.0287,-0.0276,-0.0243,-0.0135,-0.0102,0.0041,0.0086,0.0235,0.03,0.0288,0.0449,0.0466,0.0474,0.041,0.0407,0.0403,0.036,0.0359,0,0,0,0,0,-0.0374,-0.0384,-0.0366,-0.0374,-0.0367,-0.0319,-0.0303,-0.0272,-0.0183,-0.0138,-0.0014,0.0121,0.0261,0.0333,0.0462,0.0569,0.0573,0.0595,0.059,0.0587,0.0576,0.061,0.0607,0.0632,0.0632,0.0632,0,0,-0.0384,-0.038,-0.0384,-0.0379,-0.0353,-0.0343,-0.0306,-0.0285,-0.0245,-0.0103,0.0016,0.0138,0.0292,0.0415,0.048,0.0475,0.057,0.0586,0.0583,0.0574,0.0609,0.0606,0.0604,0.0631,0.0631,0.0631,0,0,-0.0412,-0.0404,-0.0421,-0.0412,-0.0391,-0.0358,-0.0358,-0.0301,-0.0243,-0.0131,-0.0008,0.0115,0.0306,0.0412,0.0494,0.0541,0.0564,0.0564,0.0507,0.054,0.0538,0.0536,0.0482,0.0476,0.0542,0.0542,0.0542,0,-0.0422,-0.0441,-0.0424,-0.0432,-0.0419,-0.0369,-0.0369,-0.0305,-0.0195,-0.0138,-0.0103,0.0163,0.0302,0.0453,0.0469,0.0536,0.052,0.0521,0.0533,0.0533,0.0532,0.0478,0.0472,0.0539,0.0539,0.054,0.054,0,-0.046,-0.0469,-0.0475,-0.0466,-0.045,-0.0445,-0.0374,-0.0321,-0.0245,-0.018,-0.0025,0.0143,0.0281,0.0339,0.0439,0.0507,0.0481,0.054,0.0542,0.0526,0.0469,0.0464,0.0535,0.0536,0.0537,0.0537,0,0,-0.0495,-0.0502,-0.0503,-0.0505,-0.0465,-0.0458,-0.0384,-0.0315,-0.0268,-0.0153,-0.0097,0.0141,0.0195,0.0288,0.0405,0.0437,0.0428,0.0473,0.0476,0.0409,0.0422,0.0485,0.0485,0.0486,0.0486,0.0486,0.0362,0,-0.0526,-0.0561,-0.0541,-0.0546,-0.0552,-0.0484,-0.0431,-0.0352,-0.0263,-0.0196,-0.0044,0.0074,0.0187,0.025,0.0304,0.042,0.0421,0.0451,0.0455,0.0453,0.0508,0.0486,0.0501,0.0401,0.0357,0.0356,0.0356,0,-0.0563,-0.0582,-0.0606,-0.059,-0.0584,-0.0572,-0.0494,-0.0436,-0.0321,-0.0254,-0.0148,-0.0037,0.0075,0.0152,0.0273,0.028,0.0338,0.0396,0.0394,0.0475,0.0512,0.0424,0.0394,0.0348,0.0349,0.035,0.035,0,-0.0604,-0.0618,-0.064,-0.0636,-0.0612,-0.0592,-0.056,-0.0458,-0.0404,-0.0301,-0.0276,-0.0136,-0.0064,0.0028,0.02,0.0216,0.0286,0.0322,0.041,0.041,0.0437,0.0442,0.0372,0.0372,0.0372,0.0372,0.0373,0,-0.0643,-0.0659,-0.0668,-0.0682,-0.0689,-0.0648,-0.0625,-0.0562,-0.0495,-0.0446,-0.0316,-0.0251,-0.0084,0.0009,0.0122,0.0255,0.0226,0.0383,0.0401,0.0412,0.0417,0.0405,0.0411,0.0368,0.0369,0.037,0.037,0,-0.0679,-0.0691,-0.0716,-0.0714,-0.0715,-0.0715,-0.0684,-0.0661,-0.0593,-0.0541,-0.0514,-0.036,-0.0228,-0.0078,0.007,0.0171,0.0283,0.0341,0.0307,0.0327,0.0368,0.0372,0.0351,0.0353,0.0354,0.0355,0.0356,0,-0.0701,-0.0725,-0.0747,-0.0764,-0.0767,-0.0768,-0.0764,-0.0709,-0.0681,-0.0578,-0.0558,-0.0423,-0.028,-0.0077,0.0126,0.027,0.0308,0.0359,0.0434,0.0356,0.0374,0.0376,0.0378,0.0392,0.0394,0.0395,0.0395,0,-0.0731,-0.0741,-0.0761,-0.0805,-0.0821,-0.0832,-0.0823,-0.0825,-0.0746,-0.0689,-0.0575,-0.0464,-0.0234,-0.0008,0.0205,0.0305,0.0336,0.0384,0.032,0.0434,0.0397,0.0416,0.0415,0.0404,0.0403,0.0403,0.0402,0.0402,-0.0742,-0.0765,-0.0798,-0.0831,-0.0857,-0.0877,-0.0877,-0.0848,-0.0801,-0.0679,-0.0584,-0.0383,-0.019,0.0155,0.0296,0.0426,0.0423,0.0463,0.0458,0.0452,0.0519,0.0492,0.052,0.052,0.052,0.052,0.052,0,-0.0751,-0.0781,-0.0819,-0.0862,-0.0892,-0.0897,-0.0897,-0.0864,-0.0795,-0.0645,-0.0497,-0.0253,-0.0004,0.018,0.0408,0.0529,0.051,0.0535,0.0496,0.0489,0.0482,0.0548,0.0557,0.0557,0.0557,0.0557,0,0,-0.0759,-0.0798,-0.0821,-0.0876,-0.0905,-0.092,-0.0915,-0.0839,-0.0726,-0.0552,-0.0384,-0.0179,0.0041,0.0201,0.0356,0.0469,0.044,0.0472,0.0438,0.0368,0.0359,0.0445,0.0541,0,0,0,0,0]}],[{"header":{"parameterUnit":"m.s-1","parameterCategory":2,"la1":30.2991,"la2":30.254,"lo1":-89.0895,"lo2":-89.0444,"dy":0.0017,"dx":0.0017,"nx":28,"ny":28,"refTime":"2025-08-16T09:00:00:Z","depth":"4","parameterNumber":2,"parameterNumberName":"U-component_of_CURRENTS"},"data":[0,0,0,0,0,0,0,0,0,0,0,0,0,0,0,0,0,0,0,0,0,0,0,0,0,0,0,0,0,0,0,0,0,0,0,0,0,0,0,0,0,0,0,0,0,0,0,0,0,0,0,0,0,0,0,0,0,0,-0.1195,-0.1195,0,-0.1241,-0.1241,-0.1241,-0.127,-0.127,-0.1271,-0.1271,-0.1319,-0.132,-0.1321,0,0,0,0,0,0,0,0,0,0,0,0,0,-0.1118,-0.1119,-0.1195,-0.1196,-0.1196,-0.1241,-0.1241,-0.1242,-0.127,-0.127,-0.1271,-0.1271,-0.1318,-0.132,-0.1321,0,0,0,0,0,0,0,0,0,0,0,0,0,-0.1155,-0.1119,-0.1195,-0.1217,-0.1219,-0.1241,-0.1241,-0.1242,-0.127,-0.127,-0.1271,-0.1271,-0.1318,-0.1319,-0.1321,-0.1321,0,0,-0.1326,-0.1326,0,0,0,0,0,0,0,0,-0.1153,-0.1157,-0.1213,-0.1215,-0.1218,-0.1251,-0.1232,-0.1269,-0.127,-0.1249,-0.1271,-0.1271,-0.1297,-0.13,-0.1306,-0.1323,-0.1326,-0.1326,-0.1327,-0.1327,-0.1328,0,0,0,0,0,0,0,-0.115,-0.1155,-0.1211,-0.1214,-0.1217,-0.122,-0.1226,-0.1239,-0.1269,-0.1251,-0.1253,-0.1261,-0.1298,-0.1304,-0.1307,-0.1326,-0.1326,-0.1327,-0.1328,-0.1328,-0.1422,-0.1423,0,0,0,0,0,0,-0.1148,-0.1153,-0.121,-0.1213,-0.1188,-0.1221,-0.1227,-0.1239,-0.1269,-0.1274,-0.126,-0.1262,-0.1301,-0.1305,-0.1309,-0.1366,-0.1327,-0.1329,-0.1329,-0.142,-0.1422,-0.1424,0,0,0,0,0,0,-0.1146,-0.1153,-0.1208,-0.1185,-0.1192,-0.1222,-0.1235,-0.124,-0.1264,-0.1276,-0.1282,-0.1282,-0.1302,-0.1307,-0.1332,-0.1366,-0.1329,-0.1331,-0.1418,-0.1421,-0.1423,-0.1446,0,0,0,0,0,0,-0.1144,-0.1152,-0.1169,-0.1185,-0.1194,-0.1233,-0.1235,-0.124,-0.1267,-0.127,-0.1296,-0.13,-0.1303,-0.133,-0.1333,-0.1368,-0.1332,-0.1416,-0.1419,-0.1422,-0.1443,-0.1449,-0.1453,0,0,0,0,0,-0.1141,-0.1157,-0.1169,-0.1177,-0.1213,-0.1233,-0.1238,-0.1259,-0.1268,-0.1282,-0.1296,-0.13,-0.1352,-0.1331,-0.1336,-0.1371,-0.1415,-0.1419,-0.1422,-0.1441,-0.1448,-0.1453,0,0,0,0,0,0,-0.1132,-0.1162,-0.1176,-0.1201,-0.1223,-0.1239,-0.1256,-0.1269,-0.1291,-0.13,-0.1307,-0.1312,-0.1352,-0.1358,-0.1335,-0.141,-0.139,-0.1394,-0.1403,-0.1409,-0.1414,-0.141,-0.1333,0,0,0,0,0,-0.1138,-0.1162,-0.1185,-0.1209,-0.1219,-0.1241,-0.1256,-0.1272,-0.129,-0.1301,-0.1322,-0.1346,-0.1367,-0.1384,-0.1403,-0.1435,-0.1426,-0.1467,-0.1472,-0.1476,-0.1478,-0.1481,-0.1485,-0.1436,-0.1436,-0.1435,0,0,-0.1144,-0.1163,-0.1178,-0.121,-0.1227,-0.1249,-0.1252,-0.128,-0.1304,-0.1302,-0.1346,-0.1363,-0.1379,-0.1417,-0.1437,-0.1428,-0.1488,-0.1481,-0.1484,-0.1483,-0.1485,-0.1489,-0.1493,-0.1438,-0.1438,-0.1437,0,0,-0.1153,-0.1181,-0.12,-0.122,-0.1252,-0.1266,-0.1279,-0.131,-0.133,-0.1366,-0.1376,-0.1405,-0.1446,-0.146,-0.1471,-0.1517,-0.1513,-0.1542,-0.1567,-0.1569,-0.1573,-0.1576,-0.1571,-0.1573,-0.1547,-0.1547,-0.1547,0,-0.1159,-0.1186,-0.1208,-0.1228,-0.1248,-0.1276,-0.1297,-0.1322,-0.1361,-0.1372,-0.1387,-0.1441,-0.1463,-0.149,-0.1522,-0.1528,-0.1528,-0.1537,-0.1574,-0.1576,-0.1579,-0.1573,-0.1575,-0.1549,-0.1549,-0.1549,-0.1548,0,-0.1175,-0.1205,-0.1217,-0.1254,-0.1277,-0.1303,-0.1335,-0.1365,-0.1396,-0.1413,-0.1455,-0.1481,-0.1507,-0.1535,-0.1548,-0.1588,-0.1582,-0.1574,-0.155,-0.1585,-0.1577,-0.1579,-0.1551,-0.155,-0.155,-0.155,0,0,-0.116,-0.1218,-0.1224,-0.1243,-0.1295,-0.1309,-0.1352,-0.1384,-0.1407,-0.145,-0.1479,-0.1528,-0.1539,-0.1554,-0.1576,-0.16,-0.1631,-0.161,-0.161,-0.1593,-0.1638,-0.1499,-0.1488,-0.1631,-0.1632,-0.1632,-0.1625,0,-0.1166,-0.1204,-0.1236,-0.1276,-0.1294,-0.1334,-0.1365,-0.1399,-0.1438,-0.1478,-0.1501,-0.1542,-0.1546,-0.1577,-0.1594,-0.1634,-0.1638,-0.1633,-0.1619,-0.1618,-0.1479,-0.1485,-0.1634,-0.1626,-0.1626,-0.1627,-0.1627,0,-0.1163,-0.119,-0.1231,-0.1277,-0.1289,-0.1321,-0.137,-0.1403,-0.1454,-0.1483,-0.1513,-0.1544,-0.1592,-0.1596,-0.1629,-0.1631,-0.1635,-0.1652,-0.1652,-0.1513,-0.1482,-0.1587,-0.163,-0.163,-0.1629,-0.1629,-0.1629,0,-0.1124,-0.1181,-0.1215,-0.1235,-0.1294,-0.1319,-0.135,-0.1401,-0.1436,-0.1496,-0.1536,-0.1563,-0.1608,-0.1614,-0.164,-0.165,-0.1668,-0.1673,-0.1536,-0.1527,-0.1644,-0.1641,-0.1672,-0.1672,-0.1672,-0.1672,-0.1672,0,-0.1105,-0.113,-0.1203,-0.1219,-0.1249,-0.1297,-0.1342,-0.1373,-0.1443,-0.148,-0.1536,-0.157,-0.1623,-0.1639,-0.1642,-0.1578,-0.1649,-0.1532,-0.151,-0.1656,-0.1654,-0.1645,-0.1642,-0.1671,-0.1672,-0.1672,-0.1672,0,-0.1051,-0.1108,-0.1142,-0.121,-0.1234,-0.1252,-0.1338,-0.137,-0.1439,-0.1499,-0.1526,-0.1598,-0.1599,-0.1609,-0.1629,-0.1568,-0.1533,-0.1486,-0.1634,-0.1622,-0.1396,-0.1395,-0.1341,-0.1336,-0.1332,-0.1328,-0.1325,0,-0.1027,-0.1044,-0.1122,-0.1149,-0.1185,-0.1235,-0.1271,-0.1351,-0.1392,-0.1496,-0.1515,-0.1559,-0.158,-0.148,-0.15,-0.1436,-0.1416,-0.139,-0.1399,-0.1375,-0.1361,-0.1366,-0.1371,-0.1318,-0.1317,-0.1316,-0.1315,0,-0.097,-0.1011,-0.1041,-0.1091,-0.1139,-0.1186,-0.1246,-0.127,-0.1361,-0.1451,-0.1457,-0.1443,-0.1429,-0.1399,-0.1339,-0.1304,-0.1408,-0.1345,-0.1354,-0.1363,-0.1347,-0.1338,-0.1348,-0.13,-0.1302,-0.1304,-0.1304,0,-0.0927,-0.0932,-0.0982,-0.1014,-0.1077,-0.1106,-0.1152,-0.1194,-0.1238,-0.1353,-0.135,-0.1374,-0.1428,-0.1329,-0.1285,-0.1217,-0.1205,-0.1176,-0.1194,-0.1211,-0.1164,-0.1124,-0.0979,0,0,0,0,0,-0.0873,-0.0872,-0.0901,-0.0933,-0.0996,-0.1026,-0.1121,-0.1176,-0.1275,-0.1242,-0.1289,-0.1261,-0.1196,-0.121,-0.1106,-0.1207,-0.1201,-0.1082,-0.1177,-0.1217,-0.1234,-0.1187,0,0,0,0,0,0,-0.0838,-0.0861,-0.0866,-0.0858,-0.0867,-0.0922,-0.0976,-0.105,-0.1037,-0.1138,-0.1103,-0.1172,-0.1117,-0.1218,-0.1074,-0.1072,-0.1102,-0.1096,-0.1092,-0.1207,-0.1223,-0.1237,-0.1194,0,0,0,0,0]},{"header":{"parameterUnit":"m.s-1","parameterCategory":2,"la1":30.2991,"la2":30.254,"lo1":-89.0895,"lo2":-89.0444,"dy":0.0017,"dx":0.0017,"nx":28,"ny":28,"refTime":"2025-08-16T09:00:00:Z","depth":"4","parameterNumber":3,"parameterNumberName":"V-component_of_CURRENTS"},"data":[0,0,0,0,0,0,0,0,0,0,0,0,0,0,0,0,0,0,0,0,0,0,0,0,0,0,0,0,0,0,0,0,0,0,0,0,0,0,0,0,0,0,0,0,0,0,0,0,0,0,0,0,0,0,0,0,0,0,-0.0318,-0.0318,0,-0.0315,-0.0315,-0.0315,-0.0294,-0.0293,-0.0293,-0.0292,-0.0274,-0.0274,-0.0274,0,0,0,0,0,0,0,0,0,0,0,0,0,-0.0299,-0.0299,-0.0318,-0.0318,-0.0318,-0.0315,-0.0315,-0.0315,-0.0294,-0.0293,-0.0292,-0.0292,-0.0274,-0.0274,-0.0274,0,0,0,0,0,0,0,0,0,0,0,0,0,-0.0303,-0.03,-0.0318,-0.0307,-0.0306,-0.0315,-0.0315,-0.0315,-0.0294,-0.0293,-0.0292,-0.0291,-0.0274,-0.0274,-0.0274,-0.0292,0,0,-0.0275,-0.0275,0,0,0,0,0,0,0,0,-0.0303,-0.0304,-0.0309,-0.0308,-0.0307,-0.0304,-0.0302,-0.0307,-0.0294,-0.0299,-0.0292,-0.0291,-0.0283,-0.0282,-0.0284,-0.0291,-0.029,-0.0275,-0.0275,-0.0275,-0.0275,0,0,0,0,0,0,0,-0.0303,-0.0304,-0.0318,-0.0309,-0.0307,-0.03,-0.0299,-0.0303,-0.0296,-0.0298,-0.0297,-0.0296,-0.0282,-0.0284,-0.0284,-0.029,-0.0275,-0.0275,-0.0275,-0.0275,-0.0307,-0.0307,0,0,0,0,0,0,-0.0304,-0.0304,-0.0318,-0.0317,-0.0302,-0.0301,-0.03,-0.0306,-0.0296,-0.0294,-0.0297,-0.0295,-0.0285,-0.0284,-0.0283,-0.0304,-0.0275,-0.0275,-0.0275,-0.0306,-0.0307,-0.0308,0,0,0,0,0,0,-0.0304,-0.0305,-0.0318,-0.031,-0.0311,-0.0302,-0.0308,-0.0306,-0.0307,-0.0295,-0.0292,-0.0299,-0.0284,-0.0283,-0.0296,-0.0303,-0.0275,-0.0275,-0.0305,-0.0306,-0.0307,-0.0345,0,0,0,0,0,0,-0.0303,-0.0306,-0.0313,-0.031,-0.0311,-0.0329,-0.0309,-0.0307,-0.0308,-0.0306,-0.0296,-0.0294,-0.0283,-0.0296,-0.0296,-0.0302,-0.0275,-0.0304,-0.0305,-0.0307,-0.0342,-0.0347,-0.0351,0,0,0,0,0,-0.0303,-0.0317,-0.0313,-0.0315,-0.0321,-0.033,-0.033,-0.032,-0.0309,-0.0317,-0.0313,-0.0294,-0.0305,-0.0297,-0.0297,-0.0303,-0.0303,-0.0305,-0.0307,-0.0341,-0.0346,-0.0351,0,0,0,0,0,0,-0.0312,-0.0316,-0.0312,-0.0326,-0.033,-0.0326,-0.0334,-0.0325,-0.0329,-0.0327,-0.0311,-0.0309,-0.0322,-0.0312,-0.0304,-0.0317,-0.0298,-0.03,-0.0324,-0.0329,-0.0334,-0.0313,-0.0275,0,0,0,0,0,-0.0318,-0.033,-0.033,-0.0343,-0.0346,-0.0341,-0.0343,-0.0338,-0.0339,-0.0339,-0.0334,-0.0329,-0.0331,-0.0329,-0.0332,-0.0343,-0.0294,-0.0345,-0.035,-0.0353,-0.0337,-0.0278,-0.0275,-0.0314,-0.0314,-0.0314,0,0,-0.0326,-0.0329,-0.0336,-0.0346,-0.0348,-0.036,-0.0341,-0.0351,-0.0357,-0.0338,-0.0351,-0.0349,-0.0339,-0.0352,-0.0356,-0.0342,-0.0318,-0.0355,-0.0359,-0.034,-0.028,-0.0276,-0.0272,-0.0315,-0.0315,-0.0314,0,0,-0.0348,-0.035,-0.0368,-0.0375,-0.0381,-0.0378,-0.0382,-0.0385,-0.0381,-0.0396,-0.0383,-0.0381,-0.039,-0.0378,-0.0373,-0.0402,-0.0347,-0.041,-0.0409,-0.0353,-0.0349,-0.0344,-0.0277,-0.0266,-0.0406,-0.0406,-0.0406,0,-0.0356,-0.0377,-0.0375,-0.0393,-0.04,-0.0388,-0.0407,-0.0406,-0.0411,-0.041,-0.0404,-0.0401,-0.0395,-0.0392,-0.0402,-0.0408,-0.0364,-0.0391,-0.0356,-0.0351,-0.0345,-0.0277,-0.0264,-0.0408,-0.0408,-0.0408,-0.0408,0,-0.039,-0.0407,-0.042,-0.0437,-0.0444,-0.046,-0.0457,-0.046,-0.0453,-0.0449,-0.0448,-0.0436,-0.0426,-0.0429,-0.0423,-0.0393,-0.037,-0.0371,-0.0338,-0.0343,-0.0271,-0.0257,-0.0411,-0.0411,-0.041,-0.041,0,0,-0.0405,-0.0437,-0.0442,-0.0457,-0.0468,-0.0478,-0.0486,-0.049,-0.0487,-0.0484,-0.0472,-0.0471,-0.0454,-0.0446,-0.0434,-0.0384,-0.0312,-0.0362,-0.0358,-0.0285,-0.0173,-0.0188,-0.0174,-0.0307,-0.0305,-0.0303,-0.0138,0,-0.0432,-0.0475,-0.0481,-0.0515,-0.0535,-0.0526,-0.0534,-0.0533,-0.0521,-0.0508,-0.0478,-0.047,-0.0464,-0.0453,-0.0406,-0.0336,-0.0278,-0.0356,-0.0187,-0.0181,-0.0186,-0.016,-0.0297,-0.0127,-0.0124,-0.0121,-0.012,0,-0.0462,-0.0486,-0.0529,-0.0552,-0.0559,-0.0576,-0.0574,-0.0578,-0.0553,-0.0541,-0.0515,-0.0489,-0.0427,-0.0418,-0.0278,-0.0328,-0.025,-0.0189,-0.0181,-0.0167,-0.0171,-0.0121,-0.0094,-0.0096,-0.0098,-0.0099,-0.0101,0,-0.0475,-0.0517,-0.0551,-0.0563,-0.0588,-0.0599,-0.0604,-0.0593,-0.0589,-0.0552,-0.053,-0.0469,-0.0416,-0.032,-0.021,-0.0231,-0.004,-0.0054,0.0011,0.0012,-0.0007,-0.0013,0.006,0.006,0.0059,0.0059,0.0059,0,-0.0498,-0.0526,-0.0563,-0.0584,-0.0616,-0.0622,-0.0638,-0.063,-0.0607,-0.059,-0.0547,-0.0496,-0.0384,-0.0277,-0.0187,-0.0041,-0.0018,0.0033,0.0057,-0.0029,-0.004,0.0004,-0.0005,0.0065,0.0064,0.0063,0.0062,0,-0.0508,-0.0536,-0.0577,-0.0614,-0.0628,-0.0649,-0.0665,-0.0667,-0.0638,-0.0603,-0.0586,-0.0486,-0.0339,-0.0229,-0.0049,-0.0,0.013,0.0172,0.0092,0.0105,0.0145,0.0132,0.0281,0.0282,0.0283,0.0283,0.0284,0,-0.0517,-0.0543,-0.0599,-0.0627,-0.0649,-0.0678,-0.0695,-0.0687,-0.0677,-0.059,-0.0564,-0.0423,-0.0348,-0.0088,0.001,0.0189,0.0194,0.026,0.0188,0.0161,0.017,0.0156,0.0142,0.0285,0.0285,0.0285,0.0286,0,-0.0528,-0.0554,-0.0587,-0.0645,-0.068,-0.0708,-0.0724,-0.0714,-0.068,-0.0651,-0.0511,-0.0387,-0.022,-0.0062,0.0072,0.0188,0.0213,0.0269,0.0268,0.02,0.0168,0.0173,0.0158,0.0288,0.0288,0.0288,0.0288,0,-0.0533,-0.0558,-0.0608,-0.0652,-0.0701,-0.0723,-0.073,-0.0691,-0.0667,-0.0567,-0.0512,-0.0342,-0.0238,-0.0059,0.0064,0.0174,0.0192,0.0206,0.0208,0.0207,0.0108,0.0051,0.0178,0,0,0,0,0,-0.0532,-0.0563,-0.061,-0.0662,-0.0709,-0.0733,-0.0742,-0.0736,-0.0694,-0.0592,-0.0549,-0.0392,-0.018,-0.0083,0.0031,0.0048,0.0182,0.0179,0.0192,0.0303,0.03,0.0192,0,0,0,0,0,0,-0.0534,-0.0581,-0.0606,-0.0658,-0.0693,-0.0735,-0.0741,-0.0714,-0.0647,-0.0583,-0.046,-0.0383,-0.0176,-0.0238,0.0031,0.0063,0.0081,0.0283,0.0284,0.0305,0.0302,0.03,0.0187,0,0,0,0,0]}]]